Minneapolis Crystal, MN

10:54 AM CDT on August 19, 2017 (GMT -0500)
Crystal

Weather History for KMIC - February, 2013

Change the Weather History Date:

Saturday, February 16, 2013

  Actual Average Record
Temperature  
Mean Temperature 10 °F -  
Max Temperature 19 °F 28 °F 54 °F (2011)
Min Temperature 1 °F 13 °F -7 °F (1993)
Degree Days  
Heating Degree Days 55    
Moisture  
Dew Point 1 °F    
Average Humidity 72    
Maximum Humidity 84    
Minimum Humidity 52    
Precipitation  
Precipitation 0.00 in - - ()
Sea Level Pressure  
Sea Level Pressure 30.22 in    
Wind  
Wind Speed 2 mph (WSW)    
Max Wind Speed 7 mph    
Max Gust Speed -    
Visibility 10 miles    
Events      
Averages and records for this station are not official NWS values.
T = Trace of Precipitation, MM = Missing Value Source: NWS Daily Summary

Daily Weather History Graph

Daily Weather History Graph

Search for Another Location

Airport or City:

Trip Planner

Search our weather history database for the weather conditions in past years. The results will help you decide how hot, cold, wet, or windy it might be!

Date:

Astronomy

Feb. 16, 2013 Rise Set
Actual Time 7:12 AM CST 5:43 PM CST
Civil Twilight 6:42 AM CST 6:13 PM CST
Nautical Twilight 6:07 AM CST 6:47 PM CST
Astronomical Twilight 5:33 AM CST 7:21 PM CST
Moon 10:05 AM CST (2/16) 12:02 AM CST (2/16)
Length of Visible Light 11h 31m
Length of Day
10h 30m
Waxing Crescent, 39% of the Moon is Illuminated
Feb 16
Waxing Crescent
Feb 17
First Quarter
Feb 25
Full
Mar 4
Last Quarter
Mar 11
New

Hourly Weather History & Observations

Time (CST) Temp. Windchill Dew Point Humidity Pressure Visibility Wind Dir Wind Speed Gust Speed Precip Events Conditions
12:53 AM 1.9 °F -7.6 °F -2.9 °F 80% 30.30 in 10.0 mi WNW 4.6 mph - N/A   Clear
1:53 AM 1.9 °F -7.6 °F -2.9 °F 80% 30.30 in 10.0 mi WNW 4.6 mph - N/A   Overcast
3:53 AM 1.9 °F -5.6 °F -2.9 °F 80% 30.27 in 10.0 mi WNW 3.5 mph - N/A   Overcast
4:53 AM 3.0 °F - -2.0 °F 80% 30.26 in 10.0 mi Calm Calm - N/A   Overcast
5:53 AM 3.9 °F - -0.9 °F 80% 30.26 in 10.0 mi Calm Calm - N/A   Overcast
6:53 AM 3.9 °F -3.4 °F -0.9 °F 80% 30.25 in 10.0 mi WSW 3.5 mph - N/A   Overcast
7:53 AM 3.0 °F -4.4 °F -0.9 °F 84% 30.26 in 7.0 mi WSW 3.5 mph - N/A   Overcast
8:53 AM 3.9 °F -3.4 °F -0.9 °F 80% 30.26 in 10.0 mi West 3.5 mph - N/A   Overcast
9:53 AM 8.1 °F - 1.9 °F 76% 30.25 in 5.0 mi Calm Calm - N/A   Haze
10:53 AM 10.0 °F - 3.0 °F 73% 30.25 in 9.0 mi Calm Calm - N/A   Overcast
11:29 AM 10.4 °F - 3.2 °F 73% 30.18 in 10.0 mi Calm Calm - N/A   Scattered Clouds
11:53 AM 12.0 °F - 3.0 °F 67% 30.24 in 10.0 mi Calm Calm - N/A   Partly Cloudy
12:53 PM 14.0 °F - 3.0 °F 62% 30.22 in 10.0 mi Calm Calm - N/A   Clear
1:53 PM 16.0 °F - 3.9 °F 59% 30.20 in 10.0 mi Calm Calm - N/A   Clear
2:53 PM 19.0 °F - 3.9 °F 52% 30.19 in 10.0 mi Calm Calm - N/A   Clear
3:53 PM 19.0 °F - 3.9 °F 52% 30.18 in 10.0 mi Calm Calm - N/A   Clear
4:53 PM 18.0 °F - 3.9 °F 54% 30.19 in 10.0 mi Calm Calm - N/A   Clear
5:53 PM 16.0 °F 10.4 °F 3.9 °F 59% 30.19 in 10.0 mi South 3.5 mph - N/A   Clear
6:53 PM 12.0 °F 1.5 °F 3.0 °F 67% 30.19 in 10.0 mi SSE 6.9 mph - N/A   Clear
7:53 PM 12.0 °F 4.1 °F 3.0 °F 67% 30.19 in 10.0 mi SSE 4.6 mph - N/A   Clear
8:53 PM 7.0 °F - 1.0 °F 77% 30.19 in 10.0 mi Calm Calm - N/A   Clear
9:53 PM 5.0 °F - 1.0 °F 84% 30.19 in 10.0 mi Calm Calm - N/A   Scattered Clouds
10:53 PM 3.9 °F - -0.0 °F 84% 30.17 in 8.0 mi Calm Calm - N/A   Clear
11:53 PM 3.9 °F - -0.0 °F 84% 30.15 in 8.0 mi Calm Calm - N/A   Partly Cloudy